When you browse on this site, cookies collect data to enhance your experience and personalize the content and advertising you see.
Visit our Privacy Policy to learn more. By continuing to use the site, you agree to this use of cookies and data.
  • en Belgique
  • Liste des pays
  • À 7 jours
  • Température de l'eau
  • Carte météo
  • Widgets météo
  • user-avatar
    Se connecter

    Météo par heure à Lezhё

    Ce jour, 20 Octobre, Dimanche

    Heure Température Précipitation Vent Pression Humidité
    00:00 +16°C° 0 mm 1 m/s 740 mmHg 76%
    01:00 +16°C° 0 mm 1 m/s 740 mmHg 75%
    02:00 +16°C° 0 mm 1 m/s 740 mmHg 75%
    03:00 +16°C° 0 mm 1 m/s 740 mmHg 75%
    04:00 +15°C° 0 mm 1 m/s 740 mmHg 75%
    05:00 +16°C° 0 mm 1 m/s 740 mmHg 73%
    06:00 +16°C° 0 mm 1 m/s 741 mmHg 72%
    07:00 +18°C° 0 mm 1 m/s 741 mmHg 70%
    08:00 +20°C° 0 mm 1 m/s 741 mmHg 63%
    09:00 +22°C° 0 mm 1 m/s 741 mmHg 56%
    10:00 +24°C° 0 mm 1 m/s 741 mmHg 49%
    11:00 +25°C° 0 mm 1 m/s 741 mmHg 47%
    12:00 +25°C° 0 mm 1 m/s 741 mmHg 45%
    13:00 +26°C° 0 mm 2 m/s 741 mmHg 43%
    14:00 +25°C° 0 mm 1 m/s 741 mmHg 48%
    15:00 +24°C° 0 mm 1 m/s 740 mmHg 52%
    16:00 +23°C° 0 mm 1 m/s 740 mmHg 57%
    17:00 +22°C° 0 mm 1 m/s 740 mmHg 62%
    18:00 +20°C° 0 mm 1 m/s 741 mmHg 67%
    19:00 +16°C° 0 mm 0 m/s 741 mmHg 72%
    20:00 +16°C° 0 mm 0 m/s 741 mmHg 72%
    21:00 +18°C° 0 mm 1 m/s 741 mmHg 71%
    22:00 +18°C° 0 mm 1 m/s 742 mmHg 70%
    23:00 +18°C° 0 mm 1 m/s 742 mmHg 69%

    Demain, 21 Octobre, Lundi

    Heure Température Précipitation Vent Pression Humidité
    00:00 +16°C° 0 mm 1 m/s 742 mmHg 69%
    01:00 +16°C° 0 mm 1 m/s 742 mmHg 69%
    02:00 +16°C° 0 mm 1 m/s 741 mmHg 68%
    03:00 +16°C° 0 mm 1 m/s 741 mmHg 67%
    04:00 +16°C° 0 mm 1 m/s 741 mmHg 66%
    05:00 +16°C° 0 mm 1 m/s 741 mmHg 64%
    06:00 +18°C° 0 mm 1 m/s 742 mmHg 63%
    07:00 +18°C° 0 mm 1 m/s 742 mmHg 61%
    08:00 +20°C° 0 mm 1 m/s 742 mmHg 53%
    09:00 +23°C° 0 mm 1 m/s 742 mmHg 46%
    10:00 +25°C° 0 mm 1 m/s 742 mmHg 38%
    11:00 +26°C° 0 mm 1 m/s 742 mmHg 37%
    12:00 +27°C° 0 mm 1 m/s 742 mmHg 35%
    13:00 +27°C° 0 mm 2 m/s 741 mmHg 33%
    14:00 +26°C° 0 mm 2 m/s 741 mmHg 39%
    15:00 +25°C° 0 mm 2 m/s 741 mmHg 45%
    16:00 +24°C° 0 mm 2 m/s 741 mmHg 51%
    17:00 +22°C° 0 mm 1 m/s 741 mmHg 54%
    18:00 +21°C° 0 mm 1 m/s 741 mmHg 56%
    19:00 +20°C° 0 mm 1 m/s 741 mmHg 59%
    20:00 +19°C° 0 mm 1 m/s 741 mmHg 58%
    21:00 +19°C° 0 mm 1 m/s 741 mmHg 57%
    22:00 +19°C° 0 mm 1 m/s 742 mmHg 56%
    23:00 +19°C° 0 mm 1 m/s 741 mmHg 56%

    Après-demain, 22 Octobre, Mardi

    Heure Température Précipitation Vent Pression Humidité
    00:00 +19°C° 0 mm 1 m/s 741 mmHg 56%
    01:00 +18°C° 0 mm 1 m/s 741 mmHg 57%
    02:00 +17°C° 0 mm 2 m/s 741 mmHg 56%
    03:00 +17°C° 0 mm 2 m/s 741 mmHg 56%
    04:00 +17°C° 0 mm 2 m/s 741 mmHg 56%
    05:00 +17°C° 0 mm 2 m/s 741 mmHg 55%
    06:00 +17°C° 0 mm 2 m/s 741 mmHg 55%
    07:00 +17°C° 0 mm 2 m/s 741 mmHg 54%
    08:00 +20°C° 0 mm 2 m/s 741 mmHg 48%
    09:00 +24°C° 0 mm 2 m/s 741 mmHg 42%
    10:00 +26°C° 0 mm 1 m/s 741 mmHg 36%
    11:00 +27°C° 0 mm 2 m/s 741 mmHg 34%
    12:00 +28°C° 0 mm 2 m/s 741 mmHg 32%
    13:00 +29°C° 0 mm 2 m/s 741 mmHg 30%
    14:00 +28°C° 0 mm 2 m/s 740 mmHg 35%
    15:00 +26°C° 0 mm 2 m/s 740 mmHg 40%
    16:00 +25°C° 0 mm 2 m/s 740 mmHg 45%
    17:00 +24°C° 0 mm 2 m/s 740 mmHg 47%
    18:00 +21°C° 0 mm 2 m/s 740 mmHg 48%
    19:00 +20°C° 0 mm 2 m/s 740 mmHg 50%
    20:00 +19°C° 0 mm 2 m/s 740 mmHg 49%
    21:00 +19°C° 0 mm 2 m/s 740 mmHg 49%
    22:00 +19°C° 0 mm 2 m/s 741 mmHg 48%
    23:00 +18°C° 0 mm 2 m/s 740 mmHg 48%

    23 Octobre, Mercredi

    Heure Température Précipitation Vent Pression Humidité
    00:00 +18°C° 0 mm 2 m/s 740 mmHg 48%
    01:00 +18°C° 0 mm 2 m/s 740 mmHg 49%
    02:00 +17°C° 0 mm 2 m/s 740 mmHg 49%
    03:00 +17°C° 0 mm 2 m/s 740 mmHg 49%
    04:00 +17°C° 0 mm 2 m/s 740 mmHg 49%
    05:00 +17°C° 0 mm 2 m/s 740 mmHg 49%
    06:00 +17°C° 0 mm 2 m/s 740 mmHg 49%
    07:00 +17°C° 0 mm 2 m/s 740 mmHg 50%
    08:00 +20°C° 0 mm 2 m/s 740 mmHg 44%
    09:00 +23°C° 0 mm 1 m/s 740 mmHg 39%
    10:00 +26°C° 0 mm 1 m/s 740 mmHg 34%
    11:00 +27°C° 0 mm 1 m/s 739 mmHg 32%
    12:00 +28°C° 0 mm 1 m/s 739 mmHg 30%
    13:00 +28°C° 0 mm 2 m/s 739 mmHg 28%
    14:00 +27°C° 0 mm 1 m/s 739 mmHg 34%
    15:00 +26°C° 0 mm 1 m/s 738 mmHg 40%
    16:00 +24°C° 0 mm 1 m/s 738 mmHg 47%
    17:00 +23°C° 0 mm 1 m/s 738 mmHg 48%
    18:00 +21°C° 0 mm 1 m/s 738 mmHg 50%
    19:00 +20°C° 0 mm 1 m/s 738 mmHg 52%
    20:00 +20°C° 0 mm 1 m/s 739 mmHg 51%
    21:00 +19°C° 0 mm 1 m/s 739 mmHg 51%
    22:00 +19°C° 0 mm 1 m/s 739 mmHg 50%
    23:00 +19°C° 0 mm 1 m/s 739 mmHg 50%

    24 Octobre, Jeudi

    Heure Température Précipitation Vent Pression Humidité
    00:00 +19°C° 0 mm 1 m/s 739 mmHg 50%
    01:00 +18°C° 0 mm 1 m/s 739 mmHg 50%
    02:00 +17°C° 0 mm 2 m/s 738 mmHg 49%
    03:00 +17°C° 0 mm 2 m/s 738 mmHg 48%
    04:00 +17°C° 0 mm 2 m/s 738 mmHg 48%
    05:00 +17°C° 0 mm 2 m/s 738 mmHg 47%
    06:00 +17°C° 0 mm 2 m/s 738 mmHg 47%
    07:00 +17°C° 0 mm 2 m/s 738 mmHg 47%
    08:00 +21°C° 0 mm 1 m/s 738 mmHg 41%
    09:00 +24°C° 0 mm 1 m/s 738 mmHg 36%
    10:00 +24°C° 0 mm 0 m/s 738 mmHg 31%
    11:00 +27°C° 0 mm 1 m/s 738 mmHg 30%
    12:00 +27°C° 0 mm 1 m/s 737 mmHg 29%
    13:00 +28°C° 0 mm 2 m/s 737 mmHg 28%
    14:00 +26°C° 0 mm 1 m/s 737 mmHg 33%
    15:00 +25°C° 0 mm 1 m/s 736 mmHg 39%
    16:00 +24°C° 0 mm 1 m/s 736 mmHg 44%
    17:00 +22°C° 0 mm 1 m/s 736 mmHg 47%
    18:00 +20°C° 0 mm 1 m/s 736 mmHg 50%
    19:00 +19°C° 0 mm 1 m/s 736 mmHg 54%
    20:00 +19°C° 0 mm 1 m/s 736 mmHg 53%
    21:00 +18°C° 0 mm 1 m/s 737 mmHg 53%
    22:00 +18°C° 0 mm 1 m/s 737 mmHg 53%
    23:00 +18°C° 0 mm 1 m/s 737 mmHg 52%

    25 Octobre, Vendredi

    Heure Température Précipitation Vent Pression Humidité
    00:00 +16°C° 0 mm 1 m/s 736 mmHg 51%
    01:00 +16°C° 0 mm 1 m/s 736 mmHg 50%
    02:00 +16°C° 0 mm 1 m/s 736 mmHg 49%
    03:00 +16°C° 0 mm 1 m/s 736 mmHg 47%
    04:00 +15°C° 0 mm 2 m/s 736 mmHg 46%
    05:00 +16°C° 0 mm 2 m/s 736 mmHg 45%
    06:00 +16°C° 0 mm 2 m/s 736 mmHg 45%
    07:00 +16°C° 0 mm 1 m/s 736 mmHg 45%
    08:00 +19°C° 0 mm 1 m/s 736 mmHg 40%
    09:00 +22°C° 0 mm 1 m/s 736 mmHg 35%
    10:00 +24°C° 0 mm 1 m/s 736 mmHg 30%
    11:00 +25°C° 0 mm 1 m/s 736 mmHg 30%
    12:00 +25°C° 0 mm 1 m/s 736 mmHg 30%
    13:00 +26°C° 0 mm 1 m/s 735 mmHg 30%
    14:00 +24°C° 0 mm 1 m/s 735 mmHg 36%
    15:00 +23°C° 0 mm 1 m/s 735 mmHg 41%
    16:00 +20°C° 0 mm 0 m/s 735 mmHg 47%
    17:00 +19°C° 0 mm 0 m/s 735 mmHg 50%
    18:00 +17°C° 0 mm 0 m/s 735 mmHg 52%
    19:00 +16°C° 0 mm 0 m/s 735 mmHg 55%
    20:00 +18°C° 0 mm 1 m/s 736 mmHg 54%
    21:00 +16°C° 0 mm 1 m/s 736 mmHg 54%
    22:00 +16°C° 0 mm 1 m/s 736 mmHg 53%
    23:00 +16°C° 0 mm 2 m/s 736 mmHg 51%
    Voir plus